| time (UTC) | temp F | wind direction | speed MPH | gust MPH | rain 1hr in | rain 24hr in | rain mn in | humidity % | barometer mb |
| 20260904041006 | 73 | 119 | 0.0 | 0.0 | 0.00 | 0.00 | 0.00 | 74 | 1011.6 |
| 20260904040005 | 73 | 206 | 0.0 | 0.0 | 0.00 | 0.00 | 0.00 | 74 | 1011.8 |
| 20260904035006 | 73 | 295 | 0.0 | 0.0 | 0.00 | 0.00 | 0.00 | 73 | 1011.8 |
| 20260904033005 | 74 | 180 | 0.0 | 0.0 | 0.00 | 0.00 | 0.00 | 70 | 1011.9 |
| 20260904032005 | 73 | 107 | 0.0 | 0.0 | 0.00 | 0.00 | 0.00 | 74 | 1011.9 |
| 20260904031005 | 73 | 190 | 0.0 | 8.0 | 0.00 | 0.00 | 0.00 | 75 | 1012.2 |
| 20260904030006 | 73 | 163 | 2.0 | 9.0 | 0.00 | 0.00 | 0.00 | 75 | 1012.4 |
| 20260904025007 | 71 | 227 | 12.0 | 13.0 | 0.00 | 0.00 | 0.00 | 77 | 1010.8 |
| 20260904024049 | 73 | 225 | 0.0 | 0.0 | 0.00 | 0.00 | 0.00 | 76 | 1010.8 |
| 20260904022005 | 75 | 225 | 0.0 | 0.0 | 0.00 | 0.00 | 0.00 | 69 | 1010.6 |
| 20260904021005 | 76 | 28 | 0.0 | 0.0 | 0.00 | 0.00 | 0.00 | 66 | 1010.7 |
| 20260904020005 | 76 | 112 | 0.0 | 0.0 | 0.00 | 0.00 | 0.00 | 63 | 1011.0 |
| 20260904015005 | 76 | 99 | 0.0 | 0.0 | 0.00 | 0.00 | 0.00 | 65 | 1011.2 |
| 20260904012006 | 75 | 148 | 0.0 | 6.0 | 0.00 | 0.00 | 0.00 | 70 | 1011.7 |
| 20260904011005 | 74 | 202 | 0.0 | 0.0 | 0.00 | 0.00 | 0.00 | 76 | 1011.3 |
| 20260904010005 | 77 | 332 | 0.0 | 1.0 | 0.00 | 0.00 | 0.00 | 69 | 1011.2 |
| 20260904004005 | 77 | 45 | 0.0 | 0.0 | 0.00 | 0.00 | 0.00 | 69 | 1011.5 |
| 20260904003005 | 77 | 40 | 0.0 | 0.0 | 0.00 | 0.00 | 0.00 | 68 | 1011.4 |
| 20260904002005 | 77 | 39 | 0.0 | 0.0 | 0.00 | 0.00 | 0.00 | 66 | 1011.3 |
| 20260904001005 | 78 | 72 | 0.0 | 0.0 | 0.00 | 0.00 | 0.00 | 63 | 1011.5 |
| 20260904000005 | 79 | 191 | 0.0 | 0.0 | 0.00 | 0.00 | 0.00 | 62 | 1011.6 |
| 20260903235006 | 79 | 126 | 0.0 | 0.0 | 0.00 | 0.00 | 0.00 | 62 | 1011.8 |
| 20260903234005 | 79 | 147 | 0.0 | 0.0 | 0.00 | 0.00 | 0.00 | 62 | 1011.8 |
| 20260903233005 | 79 | 179 | 0.0 | 0.0 | 0.00 | 0.00 | 0.00 | 63 | 1012.0 |
| 20260903232005 | 79 | 180 | 0.0 | 2.0 | 0.00 | 0.00 | 0.00 | 63 | 1011.9 |
| 20260903231006 | 79 | 185 | 0.0 | 0.0 | 0.00 | 0.00 | 0.00 | 62 | 1011.6 |
| 20260903230007 | 79 | 197 | 0.0 | 0.0 | 0.00 | 0.00 | 0.00 | 61 | 1011.5 |
| 20260903224005 | 79 | 173 | 0.0 | 5.0 | 0.00 | 0.00 | 0.00 | 63 | 1011.4 |
| 20260903223005 | 80 | 199 | 5.0 | 6.0 | 0.00 | 0.00 | 0.00 | 63 | 1011.2 |
| 20260903222005 | 83 | 128 | 0.0 | 0.0 | 0.00 | 0.00 | 0.00 | 56 | 1010.9 |
| 20260903221005 | 83 | 71 | 0.0 | 0.0 | 0.00 | 0.00 | 0.00 | 55 | 1011.0 |
| 20260903220005 | 84 | 24 | 0.0 | 0.0 | 0.00 | 0.00 | 0.00 | 54 | 1011.0 |
| 20260903215006 | 84 | 23 | 0.0 | 0.0 | 0.00 | 0.00 | 0.00 | 53 | 1011.0 |
| 20260903214005 | 85 | 35 | 0.0 | 0.0 | 0.00 | 0.00 | 0.00 | 52 | 1011.0 |
| 20260903213005 | 85 | 45 | 0.0 | 0.0 | 0.00 | 0.00 | 0.00 | 51 | 1011.0 |
| 20260903212005 | 86 | 55 | 0.0 | 0.0 | 0.00 | 0.00 | 0.00 | 50 | 1011.0 |
| 20260903211005 | 86 | 45 | 0.0 | 0.0 | 0.00 | 0.00 | 0.00 | 49 | 1010.8 |
| 20260903210006 | 87 | 58 | 0.0 | 0.0 | 0.00 | 0.00 | 0.00 | 47 | 1010.7 |
| 20260903205005 | 88 | 35 | 0.0 | 7.0 | 0.00 | 0.00 | 0.00 | 46 | 1010.5 |
| 20260903204005 | 89 | 58 | 6.0 | 8.0 | 0.00 | 0.00 | 0.00 | 45 | 1010.5 |
| 20260903203005 | 89 | 45 | 7.0 | 9.0 | 0.00 | 0.00 | 0.00 | 44 | 1010.5 |
| 20260903202005 | 90 | 72 | 4.0 | 8.0 | 0.00 | 0.00 | 0.00 | 44 | 1010.5 |
| 20260903201005 | 91 | 61 | 7.0 | 9.0 | 0.00 | 0.00 | 0.00 | 41 | 1010.5 |
| 20260903200005 | 91 | 29 | 6.0 | 7.0 | 0.00 | 0.00 | 0.00 | 41 | 1010.2 |
| 20260903195005 | 92 | 22 | 7.0 | 10.0 | 0.00 | 0.00 | 0.00 | 39 | 1010.1 |
| 20260903194005 | 94 | 22 | 8.0 | 12.0 | 0.00 | 0.00 | 0.00 | 34 | 1010.1 |
| 20260903193005 | 95 | 45 | 7.0 | 9.0 | 0.00 | 0.00 | 0.00 | 34 | 1009.9 |
| 20260903192006 | 96 | 45 | 8.0 | 10.0 | 0.00 | 0.00 | 0.00 | 30 | 1009.8 |
| 20260903190014 | 99 | 68 | 0.0 | 3.0 | 0.00 | 0.00 | 0.00 | 21 | 1009.7 |
| 20260903185008 | 100 | 61 | 0.0 | 0.0 | 0.00 | 0.00 | 0.00 | 22 | 1009.7 |
| 20260903184005 | 100 | 45 | 0.0 | 0.0 | 0.00 | 0.00 | 0.00 | 21 | 1009.7 |
| 20260903183006 | 101 | 45 | 3.0 | 5.0 | 0.00 | 0.00 | 0.00 | 23 | 1009.8 |
| 20260903182005 | 102 | 53 | 0.0 | 1.0 | 0.00 | 0.00 | 0.00 | 24 | 1009.9 |
| 20260903181005 | 103 | 42 | 1.0 | 3.0 | 0.00 | 0.00 | 0.00 | 23 | 1009.9 |
| 20260903180005 | 105 | 6 | 2.0 | 3.0 | 0.00 | 0.00 | 0.00 | 21 | 1009.9 |
| 20260903175005 | 106 | 6 | 0.0 | 3.0 | 0.00 | 0.00 | 0.00 | 20 | 1009.9 |
| 20260903174005 | 107 | 13 | 2.0 | 3.0 | 0.00 | 0.00 | 0.00 | 17 | 1009.9 |
| 20260903173005 | 108 | 354 | 2.0 | 5.0 | 0.00 | 0.00 | 0.00 | 16 | 1009.9 |
| 20260903172005 | 107 | 328 | 4.0 | 6.0 | 0.00 | 0.00 | 0.00 | 15 | 1010.0 |
| 20260903171005 | 107 | 330 | 3.0 | 6.0 | 0.00 | 0.00 | 0.00 | 16 | 1009.8 |
| 20260903170005 | 107 | 340 | 2.0 | 6.0 | 0.00 | 0.00 | 0.00 | 16 | 1009.9 |
| 20260903164005 | 108 | 356 | 3.0 | 6.0 | 0.00 | 0.00 | 0.00 | 15 | 1009.8 |
| 20260903163005 | 108 | 303 | 0.0 | 6.0 | 0.00 | 0.00 | 0.00 | 14 | 1010.0 |
| 20260903162005 | 108 | 338 | 4.0 | 6.0 | 0.00 | 0.00 | 0.00 | 13 | 1010.0 |
| 20260903161005 | 110 | 5 | 2.0 | 6.0 | 0.00 | 0.00 | 0.00 | 13 | 1010.1 |
| 20260903160004 | 108 | 358 | 3.0 | 7.0 | 0.00 | 0.00 | 0.00 | 13 | 1010.3 |
| 20260903155005 | 110 | 315 | 5.0 | 6.0 | 0.00 | 0.00 | 0.00 | 12 | 1010.3 |
| 20260903154005 | 110 | 299 | 3.0 | 6.0 | 0.00 | 0.00 | 0.00 | 11 | 1010.3 |
| 20260903153005 | 109 | 336 | 4.0 | 6.0 | 0.00 | 0.00 | 0.00 | 12 | 1010.4 |
| 20260903152005 | 110 | 285 | 1.0 | 6.0 | 0.00 | 0.00 | 0.00 | 12 | 1010.6 |
| 20260903151005 | 109 | 20 | 3.0 | 6.0 | 0.00 | 0.00 | 0.00 | 11 | 1010.8 |
| 20260903150006 | 108 | 340 | 3.0 | 7.0 | 0.00 | 0.00 | 0.00 | 12 | 1010.9 |
| 20260903144004 | 109 | 341 | 2.0 | 6.0 | 0.00 | 0.00 | 0.00 | 12 | 1011.1 |
| 20260903142005 | 108 | 315 | 4.0 | 6.0 | 0.00 | 0.00 | 0.00 | 15 | 1011.2 |
| 20260903140004 | 107 | 329 | 5.0 | 7.0 | 0.00 | 0.00 | 0.00 | 18 | 1011.7 |
| 20260903135005 | 107 | 333 | 5.0 | 8.0 | 0.00 | 0.00 | 0.00 | 18 | 1011.7 |
| 20260903134005 | 107 | 355 | 3.0 | 7.0 | 0.00 | 0.00 | 0.00 | 19 | 1011.7 |
| 20260903133005 | 106 | 346 | 6.0 | 7.0 | 0.00 | 0.00 | 0.00 | 18 | 1011.8 |
| 20260903130004 | 105 | 0 | 0.0 | 5.0 | 0.00 | 0.00 | 0.00 | 20 | 1012.1 |
| 20260903125005 | 105 | 338 | 0.0 | 0.0 | 0.00 | 0.00 | 0.00 | 21 | 1012.3 |
| 20260903124004 | 104 | 28 | 2.0 | 5.0 | 0.00 | 0.00 | 0.00 | 21 | 1012.3 |
| 20260903123006 | 104 | 35 | 0.0 | 6.0 | 0.00 | 0.00 | 0.00 | 22 | 1012.3 |
| 20260903122005 | 104 | 341 | 0.0 | 5.0 | 0.00 | 0.00 | 0.00 | 25 | 1012.4 |
| 20260903121005 | 104 | 317 | 0.0 | 3.0 | 0.00 | 0.00 | 0.00 | 24 | 1012.5 |
| 20260903120004 | 104 | 328 | 0.0 | 0.0 | 0.00 | 0.00 | 0.00 | 24 | 1012.7 |
| 20260903115005 | 103 | 60 | 0.0 | 0.0 | 0.00 | 0.00 | 0.00 | 25 | 1012.8 |
| 20260903113004 | 101 | 70 | 0.0 | 0.0 | 0.00 | 0.00 | 0.00 | 27 | 1012.9 |
| 20260903112005 | 100 | 355 | 0.0 | 0.0 | 0.00 | 0.00 | 0.00 | 28 | 1013.0 |
| 20260903111005 | 97 | 338 | 0.0 | 0.0 | 0.00 | 0.00 | 0.00 | 31 | 1013.2 |
| 20260903110006 | 97 | 306 | 0.0 | 0.0 | 0.00 | 0.00 | 0.00 | 31 | 1013.0 |
| 20260903105005 | 94 | 6 | 0.0 | 0.0 | 0.00 | 0.00 | 0.00 | 34 | 1013.2 |
| 20260903104005 | 93 | 350 | 0.0 | 0.0 | 0.00 | 0.00 | 0.00 | 37 | 1013.2 |
| 20260903103005 | 92 | 328 | 0.0 | 0.0 | 0.00 | 0.00 | 0.00 | 39 | 1013.1 |
| 20260903102004 | 91 | 17 | 0.0 | 1.0 | 0.00 | 0.00 | 0.00 | 41 | 1013.2 |
| 20260903101005 | 88 | 345 | 1.0 | 6.0 | 0.00 | 0.00 | 0.00 | 45 | 1013.1 |
| 20260903100005 | 86 | 355 | 3.0 | 6.0 | 0.00 | 0.00 | 0.00 | 47 | 1013.0 |
| 20260903095005 | 84 | 14 | 3.0 | 8.0 | 0.00 | 0.00 | 0.00 | 50 | 1012.9 |
| 20260903094005 | 83 | 30 | 2.0 | 8.0 | 0.00 | 0.00 | 0.00 | 53 | 1012.9 |
| 20260903093006 | 82 | 40 | 5.0 | 7.0 | 0.00 | 0.00 | 0.00 | 57 | 1012.8 |
| 20260903092004 | 79 | 25 | 5.0 | 6.0 | 0.00 | 0.00 | 0.00 | 63 | 1012.9 |
| 20260903091004 | 79 | 19 | 0.0 | 1.0 | 0.00 | 0.00 | 0.00 | 64 | 1013.1 |
| 20260903090005 | 78 | 22 | 2.0 | 6.0 | 0.00 | 0.00 | 0.00 | 66 | 1013.0 |
| 20260903085005 | 77 | 58 | 7.0 | 7.0 | 0.00 | 0.00 | 0.00 | 67 | 1013.1 |
| 20260903084005 | 76 | 45 | 0.0 | 7.0 | 0.00 | 0.00 | 0.00 | 71 | 1013.1 |
| 20260903083004 | 75 | 38 | 1.0 | 6.0 | 0.00 | 0.00 | 0.00 | 70 | 1013.2 |
| 20260903081004 | 73 | 66 | 0.0 | 1.0 | 0.00 | 0.00 | 0.00 | 77 | 1013.4 |
| 20260903080005 | 72 | 68 | 0.0 | 0.0 | 0.00 | 0.00 | 0.00 | 79 | 1013.4 |
| 20260903075005 | 74 | 0 | 0.0 | 0.0 | 0.00 | 0.00 | 0.00 | 74 | 1013.3 |
| 20260903074004 | 72 | 325 | 0.0 | 0.0 | 0.00 | 0.00 | 0.00 | 77 | 1013.3 |
| 20260903073004 | 71 | 259 | 0.0 | 0.0 | 0.00 | 0.00 | 0.00 | 81 | 1013.2 |
| 20260903072005 | 68 | 292 | 0.0 | 0.0 | 0.00 | 0.00 | 0.00 | 86 | 1013.1 |
| 20260903070006 | 66 | 22 | 0.0 | 0.0 | 0.00 | 0.00 | 0.00 | 95 | 1012.9 |
| 20260903065004 | 64 | 7 | 0.0 | 0.0 | 0.00 | 0.00 | 0.00 | 99 | 1012.8 |
| 20260903064005 | 62 | 338 | 0.0 | 0.0 | 0.00 | 0.00 | 0.00 | 99 | 1012.8 |
| 20260903063006 | 62 | 22 | 0.0 | 0.0 | 0.00 | 0.00 | 0.00 | 99 | 1012.7 |
| 20260903062007 | 62 | 292 | 0.0 | 0.0 | 0.00 | 0.00 | 0.00 | 99 | 1012.7 |
| 20260903061011 | 62 | 306 | 0.0 | 0.0 | 0.00 | 0.00 | 0.00 | 99 | 1012.5 |
| 20260903055010 | 62 | 40 | 0.0 | 0.0 | 0.00 | 0.00 | 0.00 | 99 | 1012.2 |
| 20260903054006 | 61 | 37 | 0.0 | 0.0 | 0.00 | 0.00 | 0.00 | 99 | 1012.2 |
| 20260903053005 | 62 | 292 | 0.0 | 0.0 | 0.00 | 0.00 | 0.00 | 99 | 1012.3 |
| 20260903051006 | 61 | 22 | 0.0 | 0.0 | 0.00 | 0.00 | 0.00 | 99 | 1012.2 |
| 20260903050005 | 61 | 303 | 0.0 | 0.0 | 0.00 | 0.00 | 0.00 | 99 | 1012.2 |
| 20260903045005 | 61 | 248 | 0.0 | 0.0 | 0.00 | 0.00 | 0.00 | 99 | 1012.1 |
| 20260903044006 | 62 | 180 | 0.0 | 0.0 | 0.00 | 0.00 | 0.00 | 99 | 1012.1 |
| 20260903042005 | 62 | 190 | 0.0 | 0.0 | 0.00 | 0.00 | 0.00 | 99 | 1011.9 |